Location: Arpaia
(41.0333°N, 14.5500°E)
Time: 22:48:43
(UTC+00:00)

Daily predictions for brighter satellites

Satellite Brightness Start Highest point End
(mag) Time Altitude Azimuth Time Altitude Azimuth Time Altitude Azimuth
Cosmos 1842 3.7 17:29:22 10° N 17:33:02 39° ENE 17:36:40 10° SSE
NOSS 2-2 (D) 4.0 17:31:56 10° S 17:34:58 27° ESE 17:38:05 10° ENE
Cosmos 1975 Rocket 3.7 17:32:12 10° NNE 17:36:08 33° ENE 17:40:02 10° SE
Cosmos 1674 Rocket 4.4 17:32:06 10° NNW 17:36:30 57° W 17:40:52 10° S
H-2A R/B 2.4 17:34:25 10° SE 17:39:01 40° ENE 17:43:43 10° N
Cosmos 2084 Rocket 4.0 17:34:54 10° NNW 17:39:09 43° NE 17:43:28 10° ESE
COSMO-SKYMED 1 3.8 17:35:02 10° N 17:39:14 48° WNW 17:43:23 10° SSW
ARGOS 3.9 17:34:41 10° SE 17:39:25 33° ENE 17:44:10 10° N
Cosmos 158 Rocket 4.1 17:36:18 10° NNW 17:41:36 87° WSW 17:46:43 10° SSE
CENTAUR R/B 4.5 17:38:39 10° NNW 17:44:32 22° NNE 17:50:52 10° ENE
CZ-2C R/B 3.8 17:40:58 10° NE 17:45:13 22° E 17:49:30 10° SE
Cosmos 1743 4.3 17:41:48 10° SSW 17:45:26 41° WNW 17:49:06 10° N
ATLAS 5 CENTAUR R/B 2.5 17:42:33 10° NNW 17:45:36 61° NE 17:54:53 10° SE
Iridium 4 Rocket 3.4 17:41:15 10° S 17:46:01 82° E 17:51:20 10° N
SL-16 R/B 4.1 17:41:04 10° NW 17:46:06 34° WSW 17:51:07 10° SSW
DMSP B5D1-3 4.5 17:41:48 10° NNE 17:46:53 68° ESE 17:51:57 10° S
Sich 1 Rocket 4.1 17:43:25 10° SSE 17:47:31 37° E 17:51:42 10° NNE
Cosmos 1707 4.0 17:44:33 10° NNE 17:47:33 21° ENE 17:50:30 10° SE
Cosmos 2263 Rocket 2.3 17:48:41 10° SSW 17:54:14 83° WNW 17:59:52 10° NNE
Meteor 2-9 Rocket 4.3 17:51:07 10° S 17:56:59 86° E 18:02:50 10° N
SL-08 RB Rocket 4.5 17:55:02 10° SE 17:59:07 32° ENE 18:03:10 10° N
DELTA 2 R/B (1) 3.8 17:53:47 10° W 17:59:17 65° SSW 18:03:49 15° ESE
Cosmos 1844 Rocket 3.7 17:57:36 10° SSE 18:01:50 23° E 18:06:05 10° NE
CZ-2C R/B 3.1 17:56:44 10° SSE 18:01:53 88° ENE 18:07:23 10° NNW
SJ 16-02 3.6 17:59:13 10° SW 18:03:02 29° WNW 18:06:52 10° N
Cosmos 1464 Rocket 4.2 17:58:11 10° SSE 18:03:57 45° E 18:09:46 10° NNE
ISS -3.7 18:02:18 10° SW 18:05:37 60° SE 18:08:13 15° ENE
Okean 2 Rocket 3.5 18:03:34 10° SSE 18:07:45 39° E 18:11:55 10° NNE
SJ-11-01 4.2 18:03:34 10° SSE 18:08:17 85° ENE 18:13:01 10° NNW
Abrixas rocket 3.9 18:06:39 10° WNW 18:08:59 22° NNW 18:11:15 10° NE
Okean-O 4.3 18:06:33 10° SSW 18:10:37 35° W 18:14:43 10° NNW
Cosmos 1943 3.2 18:06:38 10° NNW 18:12:19 88° ENE 18:17:58 10° SSE
Meteor 1-12 Rocket 4.4 18:07:33 10° S 18:13:18 53° E 18:18:57 10° NNE
Lacrosse 5 rocket 4.1 18:10:47 10° WNW 18:13:26 16° NNW 18:16:08 10° NNE
Ariane Rocket 3.5 18:09:46 14° SE 18:13:44 39° ENE 18:18:27 10° N
NOSS 2-2 (C) 3.0 18:15:53 10° SW 18:19:23 86° WNW 18:23:07 10° NE
Cosmos 1437 3.3 18:17:04 10° NNW 18:20:00 52° W 18:22:54 10° S
Cosmos 1300 Rocket 3.6 18:16:47 10° S 18:21:01 53° E 18:25:20 10° NNE
Cosmos 2298 Rocket 4.3 18:16:40 10° S 18:21:41 44° ESE 18:26:43 10° NNE
Meteor 1-21 4.4 18:17:29 10° NNW 18:23:05 73° W 18:28:38 10° S
YAOGAN 1 4.4 18:22:21 10° SSW 18:26:14 33° W 18:30:10 10° NNW
Centaur D-1AR AC-40 4.5 18:15:29 10° WSW 18:27:30 20° SSW 18:32:06 10° SSE
HJ-1C 4.5 18:25:33 10° S 18:28:43 44° W 18:31:53 10° NNW
CSL-04 Rocket 4.4 18:26:08 10° S 18:31:24 54° W 18:36:46 10° NNW
Cosmos 1891 Rocket 4.4 18:25:28 10° S 18:31:38 82° E 18:37:43 10° N
Cosmos 1603 4.4 18:26:09 10° NNW 18:31:40 55° WSW 18:37:06 10° S
Cosmos 1867 3.6 18:30:23 10° NNW 18:35:51 68° NE 18:38:36 29° SE
Cosmos 1536 Rocket 3.8 18:35:57 10° N 18:40:16 48° E 18:41:16 40° ESE
USA 234 3.2 18:36:21 10° NE 18:42:51 63° SE 18:49:19 10° SW
DMSP B5D2-2 4.0 18:43:03 10° NNE 18:48:21 69° ESE 18:53:35 10° S
CZ-4 R/B 4.5 18:46:07 10° SW 18:48:37 15° W 18:51:07 10° NW
Cosmos 2151 Rocket 3.4 18:44:28 10° S 18:48:53 79° E 18:53:23 10° N
USA 186 1.9 18:48:48 56° SSW 18:49:15 67° W 18:52:25 10° NNW
Cosmos 372 Rocket 4.2 18:44:10 10° SSW 18:49:23 71° WNW 18:54:38 10° NNE
Cosmos 2150 Rocket 3.9 18:46:26 10° SSW 18:51:45 76° ESE 18:57:11 10° NNE
Cosmos 1025 Rocket 3.0 18:49:52 10° N 18:54:16 87° W 18:56:09 34° S
OBJECT-B 2.6 19:01:22 24° N 19:01:22 24° N 19:02:51 10° N
Cosmos 2034 Rocket 4.0 18:54:23 10° S 19:00:46 89° W 19:07:10 10° N
Nadezhda 4 Rocket 3.8 18:55:03 10° N 19:01:11 81° E 19:04:41 27° SSE
Cosmos 1125 Rocket 3.4 18:57:31 10° S 19:02:44 63° ESE 19:07:59 10° NNE
Exosat Rocket 3.5 18:58:20 10° S 19:04:15 63° ESE 19:09:14 10° NNE
CZ-2C R/B 2.8 19:02:57 10° WSW 19:04:39 22° SW 19:04:39 22° SW
Cosmos 1674 3.7 19:07:12 10° N 19:09:43 38° N 19:09:43 38° N
Meteor 1-24 Rocket 4.5 19:10:01 10° N 19:14:11 35° NE 19:14:11 35° NE
Resurs 01 Rocket 2.6 19:19:16 37° NNE 19:19:16 37° NNE 19:22:14 10° N
H-2A R/B 4.2 19:14:48 10° SW 19:18:36 22° W 19:22:29 10° NW
Cosmos 468 4.4 19:14:19 10° NNW 19:19:41 89° WSW 19:20:21 69° SSE
ATLAS 2AS CENTAUR R/B 4.0 19:13:25 10° S 19:24:48 26° ENE 19:28:12 10° NE
SJ-6B 3.8 19:21:47 39° WSW 19:22:00 40° W 19:25:33 10° NNW
CZ-2C R/B 3.6 19:20:24 10° N 19:25:43 50° WNW 19:31:06 10° SW
Cosmos 1844 3.7 19:27:33 10° SSW 19:33:16 77° WNW 19:38:57 10° NNE
Cosmos 1048 Rocket 4.1 19:28:32 10° NNW 19:33:50 71° WSW 19:34:10 68° SW
Cosmos 1634 Rocket 3.8 19:34:24 75° E 19:34:24 75° E 19:40:34 10° N
CENTAUR R/B 3.2 19:28:45 10° NNW 19:36:51 64° NE 19:38:33 55° E
Cosmos 2285 Rocket 4.0 19:33:05 10° SSW 19:39:22 79° WNW 19:45:45 10° NNE
Milstar 3 Cent rocket 4.4 19:38:48 10° SW 19:39:33 12° SSW 19:39:33 12° SSW
ATLAS 3B R/B 3.9 19:36:42 10° NNW 19:42:28 28° NE 19:42:49 27° NE
ISS -0.9 19:39:50 10° WNW 19:41:13 18° WNW 19:41:13 18° WNW
USA 238 DEB 3.7 19:37:16 10° NW 19:44:34 86° WSW 19:45:38 69° SSE
USA 238 3.7 19:37:22 10° NW 19:44:40 87° WSW 19:45:43 69° SSE
Cosmos 1844 Rocket 3.5 19:39:57 10° SW 19:45:19 49° WNW 19:50:45 10° NNE
Okean 1 Rocket 4.5 19:51:22 36° NNW 19:51:22 36° NNW 19:54:23 10° N
Cosmos 1627 Rocket 4.5 19:47:04 10° N 19:53:29 82° W 19:53:33 82° WSW
Lacrosse 5 rocket 4.4 19:54:07 10° N 19:54:20 10° N 19:54:33 10° N
Cosmos 1092 Rocket 4.4 19:53:30 10° NNW 19:59:31 58° W 20:00:15 54° WSW
Cosmos 2026 Rocket 4.2 20:00:49 10° NNW 20:06:56 68° W 20:06:56 68° W
Cosmos 1833 Rocket 4.2 20:04:52 10° N 20:07:47 27° NNE 20:07:47 27° NNE
NOSS 3-2 (A) 4.4 20:05:18 10° NW 20:12:54 58° WSW 20:13:57 54° SW
Terra 4.5 20:19:12 12° N 20:19:12 12° N 20:19:35 10° N
USA 234 4.2 20:19:33 10° NE 20:25:40 44° NNW 20:31:47 10° W
Cosmos 2082 Rocket 4.3 20:44:38 10° NNW 20:46:33 21° N 20:46:33 21° N
ATLAS 2AS CENTAUR R/B 3.8 21:04:10 10° WSW 21:11:59 48° NW 21:19:23 10° NNE
CENTAUR R/B 4.4 21:20:01 10° NW 21:25:44 33° W 21:25:44 33° W
ATLAS 3B R/B 4.2 21:26:52 10° NW 21:30:03 30° NW 21:30:03 30° NW
